DW8248 Weather Reports


Display with metric or nautical units.
time (UTC)temp
F
wind
direction
speed
MPH
gust
MPH
rain 1hr
in
rain 24hr
in
rain mn
in
humidity
%
barometer
mb
20201028221316 82 103 4.0 12.0 0.00 0.00 0.00 84 1015.3
20201028220319 82 134 6.0 12.0 0.00 0.00 0.00 84 1015.2
20201028215305 82 141 6.0 10.0 0.00 0.00 0.00 84 1015.3
20201028214327 82 119 5.0 10.0 0.00 0.00 0.00 84 1015.3
20201028213338 82 119 6.0 10.0 0.00 0.00 0.00 83 1015.3
20201028212306 82 147 6.0 10.0 0.00 0.00 0.00 83 1015.3
20201028211249 82 135 6.0 11.0 0.00 0.00 0.00 82 1015.4
20201028210313 82 102 8.0 14.0 0.00 0.00 0.00 82 1015.3
20201028205252 82 157 8.0 14.0 0.00 0.00 0.00 82 1015.4
20201028204234 82 119 8.0 13.0 0.00 0.00 0.00 83 1015.4
20201028203216 82 163 8.0 16.0 0.00 0.00 0.00 82 1015.3
20201028202158 83 145 9.0 16.0 0.00 0.00 0.00 82 1015.4
20201028201129 83 96 8.0 15.0 0.00 0.00 0.00 82 1015.3
20201028200123 83 123 9.0 16.0 0.00 0.00 0.00 82 1015.4
20201028195047 83 154 9.0 16.0 0.00 0.00 0.00 81 1015.4
20201028194108 83 148 9.0 15.0 0.00 0.00 0.00 81 1015.4
20201028193121 83 139 9.0 15.0 0.00 0.00 0.00 82 1015.5
20201028192121 83 137 8.0 13.0 0.00 0.00 0.00 82 1015.6
20201028191105 83 139 9.0 15.0 0.00 0.00 0.00 82 1015.6
20201028190037 83 138 8.0 15.0 0.00 0.00 0.00 84 1015.7
20201028185101 83 115 7.0 15.0 0.00 0.00 0.00 83 1015.9
20201028184057 83 142 8.0 15.0 0.00 0.00 0.00 82 1016.0
20201028183108 83 157 9.0 14.0 0.00 0.00 0.00 82 1016.0
20201028182129 84 130 8.0 17.0 0.00 0.00 0.00 81 1016.0
20201028181058 83 137 8.0 17.0 0.00 0.00 0.00 81 1016.1
20201028180051 84 146 8.0 14.0 0.00 0.00 0.00 81 1016.3
20201028175042 83 139 8.0 14.0 0.00 0.00 0.00 83 1016.3
20201028174026 84 152 7.0 15.0 0.00 0.00 0.00 82 1016.5
20201028173044 83 131 8.0 15.0 0.00 0.00 0.00 82 1016.6
20201028172054 83 126 8.0 14.0 0.00 0.00 0.00 82 1016.6
20201028171028 84 139 7.0 14.0 0.00 0.00 0.00 82 1016.6
20201028165954 83 132 9.0 15.0 0.00 0.00 0.00 82 1016.9
20201028164921 83 149 7.0 15.0 0.00 0.00 0.00 82 1017.1
20201028163938 83 111 7.0 13.0 0.00 0.00 0.00 83 1017.2
20201028162921 83 110 7.0 12.0 0.00 0.00 0.00 82 1017.4
20201028161901 83 134 7.0 13.0 0.00 0.00 0.00 82 1017.5
20201028160831 83 109 8.0 14.0 0.00 0.00 0.00 82 1017.6
20201028155812 83 155 7.0 14.0 0.00 0.00 0.00 82 1017.6
20201028154742 83 137 7.0 12.0 0.00 0.00 0.00 83 1017.6
20201028153750 83 115 7.0 13.0 0.00 0.00 0.00 83 1017.8
20201028152739 83 138 7.0 14.0 0.00 0.00 0.00 83 1017.9
20201028151759 83 136 7.0 14.0 0.00 0.00 0.00 82 1017.9
20201028150755 83 134 7.0 11.0 0.00 0.00 0.00 84 1018.0
20201028145754 83 113 6.0 12.0 0.00 0.00 0.00 83 1018.0
20201028144759 83 131 5.0 12.0 0.00 0.00 0.00 84 1018.0
20201028143731 83 104 6.0 11.0 0.00 0.00 0.00 85 1018.0
20201028142756 83 110 6.0 10.0 0.00 0.00 0.00 84 1018.0
20201028141737 83 134 6.0 11.0 0.00 0.00 0.00 84 1018.1
20201028140742 83 115 5.0 11.0 0.00 0.00 0.00 84 1018.0
20201028135721 83 114 4.0 9.0 0.00 0.00 0.00 83 1018.1
20201028134659 83 118 5.0 11.0 0.00 0.00 0.00 83 1018.1
20201028133628 82 119 4.0 11.0 0.00 0.00 0.00 84 1018.0
20201028132639 82 126 5.0 10.0 0.00 0.00 0.00 85 1018.0
20201028131653 82 122 5.0 10.0 0.00 0.00 0.00 85 1017.9
20201028130659 82 106 5.0 10.0 0.00 0.00 0.00 86 1017.9
20201028125644 81 123 4.0 9.0 0.00 0.00 0.00 87 1017.7
20201028124644 81 98 3.0 7.0 0.00 0.00 0.00 88 1017.7
20201028123626 80 96 2.0 7.0 0.00 0.00 0.00 88 1017.6
20201028122545 80 115 2.0 10.0 0.00 0.00 0.00 88 1017.5
20201028121603 80 108 3.0 10.0 0.00 0.00 0.00 88 1017.6
20201028120558 80 101 2.0 7.0 0.00 0.00 0.00 88 1017.6
20201028115619 80 102 2.0 7.0 0.00 0.00 0.00 88 1017.6
20201028114616 80 115 2.0 7.0 0.00 0.00 0.00 88 1017.6
20201028113552 80 116 3.0 8.0 0.00 0.00 0.00 88 1017.4
20201028112546 80 121 3.0 8.0 0.00 0.00 0.00 88 1017.4
20201028111524 80 100 3.0 8.0 0.00 0.00 0.00 88 1017.4
20201028110442 80 96 3.0 7.0 0.00 0.00 0.00 88 1017.3
20201028105455 80 95 3.0 7.0 0.00 0.00 0.00 88 1017.3
20201028104426 80 121 2.0 8.0 0.00 0.00 0.00 88 1017.4
20201028103441 80 112 2.0 8.0 0.00 0.00 0.00 88 1017.4
20201028102458 80 120 2.0 7.0 0.00 0.00 0.00 88 1017.4
20201028101446 80 133 3.0 8.0 0.00 0.00 0.00 87 1017.4
20201028100459 80 134 3.0 8.0 0.00 0.00 0.00 88 1017.3
20201028095421 80 134 2.0 8.0 0.00 0.00 0.00 89 1017.2
20201028094346 80 109 4.0 8.0 0.00 0.00 0.00 88 1017.1
20201028093326 80 99 4.0 8.0 0.00 0.00 0.00 88 1016.9
20201028092320 80 88 4.0 8.0 0.00 0.00 0.00 88 1017.0
20201028091302 80 117 3.0 8.0 0.00 0.00 0.00 88 1017.0
20201028090245 80 96 3.0 9.0 0.00 0.00 0.00 88 1017.0
20201028085207 80 101 4.0 10.0 0.00 0.00 0.00 88 1016.8
20201028084155 80 114 4.0 10.0 0.00 0.00 0.00 88 1016.8
20201028083156 80 104 4.0 9.0 0.00 0.00 0.00 88 1016.7
20201028082214 80 117 4.0 9.0 0.00 0.00 0.00 88 1016.8
20201028081224 80 99 4.0 9.0 0.00 0.00 0.00 88 1016.8
20201028080237 80 105 4.0 11.0 0.00 0.00 0.00 88 1016.8
20201028075232 80 148 6.0 11.0 0.00 0.00 0.00 88 1016.7
20201028074220 80 100 6.0 10.0 0.00 0.00 0.00 88 1016.9
20201028073212 80 80 5.0 13.0 0.00 0.00 0.00 89 1016.9
20201028072151 80 126 4.0 13.0 0.00 0.00 0.00 88 1016.9
20201028071218 80 109 6.0 12.0 0.00 0.00 0.00 88 1017.1
20201028070229 80 130 6.0 12.0 0.00 0.00 0.00 89 1017.2
20201028065250 80 129 5.0 11.0 0.00 0.00 0.00 89 1017.3
20201028064248 80 115 4.0 11.0 0.00 0.00 0.00 89 1017.3
20201028063259 80 96 5.0 10.0 0.00 0.00 0.00 89 1017.6
20201028062243 80 98 4.0 10.0 0.00 0.00 0.00 89 1017.7
20201028061255 80 105 5.0 10.0 0.00 0.00 0.00 89 1017.7
20201028060250 80 113 5.0 11.0 0.00 0.00 0.00 89 1017.7
20201028055241 80 107 5.0 11.0 0.00 0.00 0.00 89 1017.8
20201028054233 80 102 5.0 10.0 0.00 0.00 0.00 90 1017.8
20201028053239 80 101 4.0 11.0 0.00 0.00 0.00 90 1017.8
20201028052255 80 92 5.0 11.0 0.00 0.00 0.00 90 1017.9
20201028051243 80 78 5.0 12.0 0.00 0.00 0.00 90 1018.1
20201028050234 80 125 5.0 12.0 0.00 0.00 0.00 89 1018.1
20201028045247 80 126 4.0 10.0 0.00 0.00 0.00 89 1018.3
20201028044245 80 84 5.0 10.0 0.00 0.00 0.00 88 1018.3
20201028043324 80 103 5.0 10.0 0.00 0.00 0.00 88 1018.4
20201028042256 80 91 5.0 11.0 0.00 0.00 0.00 88 1018.4
20201028041315 80 107 5.0 11.0 0.00 0.00 0.00 88 1018.4
20201028040253 80 96 4.0 9.0 0.00 0.00 0.00 88 1018.5
20201028035312 80 96 5.0 11.0 0.00 0.00 0.00 88 1018.4
20201028034313 80 103 5.0 11.0 0.00 0.00 0.00 88 1018.5
20201028033240 80 120 5.0 10.0 0.00 0.00 0.00 88 1018.5
20201028032237 80 116 5.0 10.0 0.00 0.00 0.00 88 1018.5
20201028031156 80 96 4.0 11.0 0.00 0.00 0.00 88 1018.5
20201028030151 80 69 6.0 12.0 0.00 0.00 0.00 88 1018.3
20201028025146 80 63 5.0 12.0 0.00 0.00 0.00 88 1018.3
20201028024206 80 80 4.0 12.0 0.00 0.00 0.00 88 1018.3
20201028023220 80 77 4.0 10.0 0.00 0.00 0.00 88 1018.5
20201028022156 80 110 4.0 10.0 0.00 0.00 0.00 88 1018.5
20201028021210 80 104 4.0 10.0 0.00 0.00 0.00 88 1018.4
20201028020153 80 95 4.0 10.0 0.00 0.00 0.00 88 1018.3
20201028015125 80 96 3.0 9.0 0.00 0.00 0.00 88 1018.4
20201028014130 80 76 4.0 9.0 0.00 0.00 0.00 88 1018.4
20201028013102 80 109 4.0 9.0 0.00 0.00 0.00 88 1018.4
20201028012108 80 82 4.0 8.0 0.00 0.00 0.00 88 1018.4
20201028011053 80 90 3.0 10.0 0.00 0.00 0.00 88 1018.4
20201028010032 80 128 4.0 11.0 0.00 0.00 0.00 88 1018.2
20201028005031 80 57 5.0 12.0 0.00 0.00 0.00 88 1018.2
20201028003949 81 88 5.0 12.0 0.00 0.00 0.00 88 1018.2
20201028002935 81 90 6.0 11.0 0.00 0.00 0.00 88 1018.1
20201028001924 81 74 4.0 10.0 0.00 0.00 0.00 87 1018.1
20201028000907 81 89 3.0 11.0 0.00 0.00 0.00 86 1018.1
20201027235842 81 94 4.0 11.0 0.00 0.00 0.00 86 1018.0
20201027234828 81 106 5.0 10.0 0.00 0.00 0.00 86 1017.8
20201027233820 81 111 4.0 9.0 0.00 0.00 0.00 86 1017.8
20201027232839 81 85 4.0 9.0 0.00 0.00 0.00 85 1017.7
20201027231847 80 123 5.0 10.0 0.00 0.00 0.00 85 1017.6
20201027230822 80 94 5.0 10.0 0.00 0.00 0.00 86 1017.5
20201027225746 81 100 5.0 12.0 0.00 0.00 0.00 86 1017.4
20201027224712 81 86 5.0 12.0 0.00 0.00 0.00 86 1017.4
20201027223643 81 83 4.0 10.0 0.00 0.00 0.00 86 1017.3
20201027222621 81 101 5.0 11.0 0.00 0.00 0.00 85 1017.2